Powrót do katalogu

STARLINK-30516

AktywnyŁącznośćVLEO
NORAD 57984·PAYLOAD·🇺🇸 United States

Wystrzelony Sep 30, 2023 z Cape Canaveral Space Force Station

Loading…

Następne Przeloty (najbliższe 24 godziny)

TLE

ŚwieżeSource: CelesTrak SupGP

Epoka: Sep 14, 2026, 22:25 UTC

1 57984C 23151W   26257.93451389 -.00053437  00000+0 -19352-2 0  2571
2 57984  43.0014   5.3174 0001665 269.1993 181.2204 15.27608550    12

Śledź STARLINK-30516 w czasie rzeczywistym z AllMySat

Download on the App Store